Wetbulb
38.19 36.57 34.51 36.55 36.48 35.33 34.21 32.60 32.85 33.77 35.39 34.38 34.61 35.25 38.50 40.94 35.22 35.80 34.14 32.37 32.61 33.14 35.28 32.25 32.33 32.24 31.88 32.20 32.12 32.59 32.70 33.34 33.44 32.69 31.58 31.11 30.83 31.63 31.84 32.26 32.56 31.72 31.62 31.44
35.81 34.67 37.61 37.67 35.81 34.79 32.68 31.41 31.35 33.36 33.33 32.97 32.59 33.08 37.57 39.21 39.68 40.88 37.34 33.88 33.32 33.25 30.51 30.79 31.39 30.92 31.17 31.72 31.91 31.60 32.10 32.27 32.48 31.66 31.18 30.86 30.54 30.52 30.97 31.42 31.06 30.26 30.46 29.80
33.49 35.27 37.06 37.07 33.23 32.95 31.39 30.61 30.19 32.00 31.44 31.34 29.23 29.36 30.76 34.93 35.97 36.69 36.17 36.80 34.91 33.74 31.52 30.50 30.32 30.20 30.83 30.91 31.06 31.35 31.43 31.25 31.46 31.16 30.46 29.51 29.18 28.87 28.66 29.35 28.87 28.99 28.83 28.70
34.91 35.74 36.38 33.33 33.50 33.72 30.63 32.74 31.39 30.26 28.86 25.95 30.25 27.18 29.28 34.20 35.51 35.57 35.64 33.90 35.47 33.61 33.41 31.62 30.91 30.02 30.09 30.69 31.54 31.48 31.01 30.51 30.62 30.06 28.76 27.09 26.14 25.60 26.89 27.07 27.54 27.56 27.94 27.48
34.63 32.99 32.28 32.49 33.98 34.50 32.70 31.62 30.56 29.42 27.23 24.21 25.50 22.52 29.17 28.22 31.39 36.34 37.41 34.94 34.82 34.17 33.29 31.36 30.94 31.34 30.68 30.94 30.36 30.61 30.01 29.09 29.44 29.07 28.07 26.62 25.02 25.32 25.88 25.34 25.09 25.47 26.16 26.78
34.29 33.80 34.78 35.37 32.13 32.10 32.84 30.28 28.35 24.58 23.80 18.95 27.57 27.05 27.07 28.18 32.12 34.99 35.39 35.60 35.39 32.56 31.78 31.96 31.93 31.80 30.45 30.24 29.98 29.28 28.39 27.94 28.28 27.59 26.56 24.93 23.37 23.05 22.84 23.09 22.63 23.54 24.28 24.62
31.22 31.65 31.91 33.77 32.15 32.11 30.64 29.74 23.95 21.48 18.82 22.78 22.06 21.12 31.66 32.42 33.10 35.72 37.13 35.68 33.43 32.50 30.01 30.39 29.94 29.31 30.16 28.67 28.75 28.49 27.46 26.12 26.51 25.67 24.52 23.65 22.75 21.91 21.21 21.41 21.51 21.22 21.87 22.43
29.98 31.08 31.18 33.18 34.97 32.72 28.98 30.52 25.73 17.71 17.25 26.91 19.05 20.99 31.14 32.61 36.59 33.21 32.22 31.71 30.22 30.51 29.48 29.86 29.90 29.67 30.24 28.87 28.38 28.39 26.60 24.98 24.43 23.53 22.94 22.44 21.58 21.41 21.00 20.75 20.42 20.07 20.06 20.71
29.44 30.02 30.07 31.38 31.19 32.63 27.91 26.26 29.61 22.43 8.84 17.16 27.16 28.88 31.48 32.64 32.27 30.93 30.22 28.64 30.01 30.36 28.40 28.97 29.39 30.02 29.94 28.88 27.96 27.26 25.29 24.28 22.89 22.34 21.67 20.51 20.14 19.78 19.16 19.20 19.32 19.21 19.68 20.29
35.55 31.07 30.20 28.66 29.34 27.56 28.86 30.41 25.04 24.51 18.71 12.47 24.28 28.42 31.46 31.37 33.63 33.83 32.19 30.86 31.86 30.63 27.78 28.08 28.96 29.40 29.80 29.18 27.55 26.21 24.36 22.93 22.14 21.16 20.14 20.37 18.97 18.68 18.42 18.00 17.58 17.71 18.09 18.41
35.69 35.27 29.18 28.37 27.23 26.89 25.47 25.71 25.32 26.82 24.03 18.91 17.17 29.03 31.40 33.44 34.40 34.63 35.29 32.55 32.33 31.45 28.04 27.77 28.40 29.00 29.06 27.66 25.83 23.73 21.96 20.92 20.34 20.01 19.08 18.01 17.62 17.32 16.92 16.52 16.40 16.39 16.85 16.92
34.92 33.25 30.20 25.72 25.46 26.46 26.93 29.49 29.96 25.56 22.85 20.75 20.59 28.54 33.70 34.72 34.81 34.67 34.62 32.80 32.15 30.55 28.57 27.46 27.57 27.87 26.62 26.29 23.66 21.72 20.22 19.81 19.43 18.44 17.39 16.62 16.13 15.69 14.89 14.86 15.32 15.55 14.73 15.32
35.23 31.26 25.33 29.02 25.58 25.90 25.79 26.79 28.97 27.04 24.59 27.30 21.12 27.97 35.66 34.15 33.73 32.78 32.26 30.68 31.13 30.32 27.13 25.26 25.86 25.71 26.45 24.64 22.48 19.57 18.61 18.37 17.82 16.67 15.47 14.73 14.00 13.65 13.63 13.47 13.51 13.59 13.17 12.75
40.13 32.38 31.48 29.02 30.97 27.75 24.10 24.69 28.02 29.21 27.40 27.70 27.66 30.98 35.93 37.99 36.85 35.79 32.99 29.32 31.14 29.40 27.70 25.15 25.18 25.47 26.44 23.64 20.66 18.05 17.33 17.25 15.89 14.74 13.40 12.61 12.77 12.88 12.04 12.10 11.83 11.35 11.36 10.21
35.85 31.71 33.73 34.87 35.42 29.48 27.53 28.14 28.64 26.20 28.75 26.99 30.93 30.32 34.65 37.77 38.43 39.27 40.19 40.07 35.07 28.17 25.06 24.94 24.62 25.13 23.10 21.39 19.42 17.33 15.76 14.86 13.87 12.43 11.45 11.27 11.90 11.40 11.16 10.45 10.73 9.90 9.55 9.11
32.32 30.76 31.69 31.84 33.83 29.64 28.78 30.09 32.52 30.98 30.64 28.78 30.02 29.85 38.36 40.19 40.21 38.97 39.43 39.11 38.35 35.69 28.25 25.87 25.57 24.51 22.17 22.15 17.74 17.89 14.03 13.20 12.77 10.79 10.94 10.71 9.82 9.41 8.92 8.77 8.12 7.30 7.47 6.87
30.14 30.16 28.99 26.77 31.42 26.81 23.61 29.94 33.08 33.86 35.07 33.12 28.61 33.16 37.27 36.55 36.96 37.25 38.08 38.56 37.91 36.88 28.53 25.45 24.92 24.02 23.11 21.66 19.68 14.41 12.97 11.83 10.64 11.27 9.40 7.75 7.31 6.45 6.37 6.06 5.50 5.09 4.37 5.00
33.11 30.78 30.77 26.50 27.44 19.71 31.00 35.57 35.18 32.56 33.56 34.51 35.16 36.69 38.24 38.37 39.60 39.88 35.51 37.45 36.69 33.55 27.84 25.62 25.11 23.82 22.87 19.28 15.39 12.93 11.24 11.48 10.87 8.71 6.35 6.10 5.58 4.17 4.13 3.53 2.99 2.97 4.08 4.34
36.73 33.25 28.45 25.10 25.21 28.96 30.42 31.60 29.13 29.35 30.72 36.77 35.26 36.24 37.73 38.52 33.36 35.31 34.12 34.83 36.49 36.55 28.94 26.01 24.78 22.93 17.03 15.23 13.21 11.71 10.79 10.64 9.24 6.76 5.90 5.04 3.98 1.47 0.90 -1.90 0.82 2.46 3.11 2.88
35.55 35.04 29.90 28.07 22.73 20.78 30.20 35.82 34.33 30.14 26.27 37.70 37.53 37.33 37.21 33.36 28.91 35.41 37.56 33.81 30.87 28.16 25.56 23.46 20.41 17.08 15.19 12.01 12.32 11.30 9.50 8.44 6.36 5.76 5.05 3.78 2.65 -1.53 -2.23 -0.37 -0.57 2.12 0.49 2.56
26.17 29.66 27.15 27.23 25.44 28.34 34.17 31.98 31.80 24.51 29.75 39.32 38.04 37.77 37.46 33.49 36.98 38.73 26.00 23.45 24.15 23.12 20.60 19.14 16.85 15.51 13.19 11.60 11.94 10.52 8.69 7.09 6.14 4.04 2.66 1.79 0.33 -2.30 -2.82 -1.59 -0.56 -0.61 -0.57 2.20
29.44 26.26 26.40 28.35 25.44 23.02 36.30 31.75 29.40 36.64 40.30 40.05 39.49 36.73 34.55 35.56 37.77 29.95 24.37 21.17 19.05 17.12 17.21 16.57 14.71 11.76 10.92 11.91 11.31 8.93 7.46 5.29 3.49 1.85 0.64 -1.55 -3.65 -4.10 -0.63 -6.32 -3.65 -2.26 -1.02 -0.63
29.61 33.00 31.84 31.07 29.77 34.10 36.71 37.99 39.27 40.92 39.77 40.24 39.80 36.60 36.91 36.03 33.87 26.51 23.22 19.15 17.56 17.07 15.46 15.47 12.53 9.42 9.26 10.71 11.40 8.33 4.69 4.02 0.57 -2.16 -3.94 -3.74 -3.08 -2.52 -2.92 -6.68 -3.26 -2.36 -0.44 1.16
35.25 38.43 33.74 33.91 36.75 33.90 34.07 37.83 40.01 40.71 39.06 40.35 39.95 36.55 33.14 35.16 31.94 25.11 21.43 18.92 17.08 15.58 14.19 12.63 10.15 8.15 6.49 7.47 9.24 6.15 3.85 1.50 -5.25 -4.67 -1.18 0.08 -1.07 -2.80 -2.26 -1.10 0.40 -1.84 1.32 3.07
35.74 35.03 34.54 33.90 36.16 38.38 39.30 39.36 39.22 38.51 37.64 32.97 34.74 36.00 33.22 33.47 29.97 27.00 21.40 18.46 17.17 15.16 13.89 12.03 11.43 8.77 5.48 4.25 1.74 1.80 0.55 -2.31 -3.66 -1.63 -0.39 -1.70 -1.94 -5.26 -2.61 -0.58 -2.01 1.98 5.53 9.66
35.31 33.23 31.67 31.71 38.51 38.08 38.93 40.70 40.91 39.78 39.84 40.27 38.77 36.82 31.02 33.89 34.36 26.73 22.31 19.04 17.10 14.75 12.72 12.26 10.71 7.53 4.21 2.27 -0.18 -2.47 -3.02 -1.78 0.03 -1.23 -2.27 -3.91 -3.82 -4.79 -3.47 -4.22 -3.36 3.73 8.52 11.41
MSLP
1017.41 1018.00 1017.62 1017.31 1017.53 1017.45 1017.80 1018.26 1018.35 1017.64 1017.52 1017.86 1016.91 1016.27 1015.29 1014.25 1014.81 1014.50 1014.60 1015.52 1016.24 1016.46 1017.34 1018.44 1019.30 1019.90 1020.62 1021.13 1021.49 1021.83 1022.29 1022.68 1023.07 1023.48 1023.81 1023.98 1023.86 1023.79 1023.48 1023.42 1023.63 1023.72 1023.67 1023.55
1017.94 1017.36 1016.14 1016.87 1017.32 1017.73 1018.16 1018.59 1018.36 1017.98 1017.91 1018.28 1017.19 1015.79 1014.44 1013.81 1012.93 1012.81 1013.17 1014.24 1014.88 1015.97 1016.86 1017.74 1018.77 1019.79 1020.32 1020.68 1021.06 1021.53 1021.88 1022.32 1022.76 1023.17 1023.52 1023.72 1023.77 1023.53 1023.35 1023.22 1023.39 1023.46 1023.30 1022.90
1017.51 1016.40 1016.21 1016.72 1017.59 1018.12 1018.34 1018.58 1018.46 1018.52 1018.51 1018.44 1017.92 1014.96 1013.64 1012.27 1011.96 1011.53 1011.93 1012.42 1013.46 1014.18 1015.41 1016.59 1017.55 1018.22 1019.20 1019.88 1020.33 1020.81 1021.35 1021.96 1022.44 1022.84 1023.34 1023.63 1023.66 1023.47 1023.19 1023.00 1023.03 1023.02 1022.70 1022.16
1017.13 1016.05 1016.35 1017.00 1017.48 1017.87 1018.53 1017.85 1018.49 1019.09 1019.72 1019.72 1018.78 1014.70 1013.80 1012.49 1011.60 1010.97 1010.87 1011.75 1012.22 1013.03 1014.17 1015.23 1016.35 1017.49 1018.13 1018.85 1019.68 1020.36 1020.92 1021.37 1021.82 1022.36 1022.95 1023.36 1023.57 1023.54 1023.39 1023.61 1023.35 1022.94 1022.50 1022.11
1015.43 1015.95 1016.64 1016.96 1016.79 1017.29 1017.73 1018.05 1019.06 1019.60 1020.12 1020.27 1019.19 1018.33 1012.81 1012.67 1011.91 1010.05 1009.40 1010.34 1011.21 1012.01 1013.00 1014.02 1015.01 1015.87 1017.06 1018.17 1019.05 1019.89 1020.64 1021.22 1021.73 1022.22 1022.62 1023.10 1023.50 1023.59 1023.29 1023.23 1022.94 1022.54 1022.10 1021.64
1015.83 1015.87 1016.15 1016.23 1016.94 1017.27 1017.90 1018.69 1019.66 1020.45 1020.67 1019.81 1017.12 1016.90 1012.54 1012.03 1010.54 1009.78 1009.22 1009.68 1010.52 1011.62 1012.48 1013.29 1014.32 1015.54 1016.48 1017.36 1018.19 1019.13 1019.97 1020.78 1021.53 1022.12 1022.57 1022.93 1023.11 1023.01 1023.04 1022.80 1022.65 1022.33 1021.92 1021.40
1015.66 1015.62 1015.67 1015.97 1017.09 1017.87 1018.18 1019.23 1020.56 1020.69 1020.82 1018.21 1016.70 1016.39 1010.93 1010.23 1009.13 1008.47 1008.81 1009.45 1010.31 1011.25 1012.03 1012.77 1013.66 1014.75 1015.83 1016.64 1017.58 1018.48 1019.24 1019.99 1020.65 1021.52 1022.40 1022.62 1022.61 1022.72 1022.71 1022.63 1022.55 1021.97 1021.16 1020.96
1015.49 1015.00 1015.24 1015.36 1015.71 1016.54 1017.90 1018.49 1019.79 1019.84 1020.29 1017.48 1016.29 1013.08 1008.39 1008.06 1007.61 1008.12 1008.71 1009.32 1009.94 1010.63 1011.53 1012.07 1012.74 1013.84 1014.82 1015.77 1016.91 1017.86 1018.85 1019.84 1020.61 1020.99 1021.41 1022.07 1022.47 1022.19 1022.20 1022.26 1021.63 1021.43 1021.34 1021.08
1014.13 1013.96 1014.58 1015.17 1015.52 1016.20 1017.79 1018.17 1017.65 1018.86 1020.35 1018.47 1013.29 1009.29 1007.77 1007.20 1007.30 1008.01 1008.46 1009.34 1009.69 1010.02 1010.98 1011.64 1012.45 1012.88 1013.98 1015.17 1016.10 1017.19 1018.41 1019.21 1019.83 1020.48 1021.11 1021.66 1021.93 1022.03 1021.79 1021.58 1021.63 1021.09 1021.10 1020.80
1011.99 1013.57 1014.23 1015.37 1015.65 1016.22 1016.21 1016.71 1017.81 1018.46 1018.77 1017.11 1011.38 1007.77 1005.78 1006.36 1006.35 1007.06 1008.09 1008.39 1008.87 1009.47 1010.34 1011.13 1011.73 1012.50 1013.32 1014.10 1015.43 1016.75 1017.55 1018.44 1019.27 1019.95 1020.42 1020.83 1021.48 1021.26 1021.02 1021.03 1020.78 1020.52 1019.97 1019.57
1011.56 1012.53 1014.13 1015.07 1014.77 1014.49 1016.44 1016.38 1016.75 1016.76 1016.37 1015.17 1012.44 1003.94 1003.06 1003.42 1004.29 1005.56 1006.17 1006.67 1007.81 1008.67 1009.44 1010.09 1010.71 1011.65 1012.80 1013.92 1014.65 1016.15 1017.25 1018.17 1019.06 1019.58 1019.95 1020.33 1020.26 1020.50 1020.47 1020.47 1019.94 1019.76 1019.47 1019.06
1011.26 1011.47 1012.84 1012.54 1013.05 1013.35 1013.67 1013.70 1014.38 1014.87 1014.24 1013.52 1011.77 1003.53 1001.14 1002.31 1003.37 1004.28 1005.04 1006.25 1006.93 1007.92 1008.61 1009.22 1010.13 1011.07 1011.99 1012.82 1014.12 1015.62 1016.90 1017.64 1018.38 1018.89 1019.31 1019.69 1019.70 1019.85 1019.73 1019.54 1019.50 1019.00 1018.61 1018.21
1010.19 1010.95 1012.02 1011.93 1013.27 1013.33 1013.05 1012.95 1012.56 1012.07 1011.48 1009.30 1010.47 1002.16 1001.62 1001.84 1002.06 1003.25 1004.76 1006.02 1006.39 1006.96 1007.90 1008.77 1009.74 1010.17 1011.06 1012.22 1013.82 1015.16 1016.11 1016.82 1017.86 1018.41 1018.82 1019.06 1019.54 1019.27 1019.19 1018.92 1018.64 1018.18 1017.79 1017.55
1008.87 1009.33 1009.92 1009.23 1008.84 1010.03 1011.51 1011.25 1010.51 1010.14 1009.01 1007.56 1005.36 1001.83 1000.44 999.79 1002.01 1003.01 1003.86 1004.67 1004.97 1005.88 1006.71 1007.82 1008.89 1009.47 1010.44 1011.81 1013.06 1014.69 1015.88 1016.46 1017.51 1018.38 1018.39 1018.86 1018.86 1018.98 1018.81 1018.74 1018.36 1018.17 1018.16 1017.93
1009.59 1009.65 1009.23 1008.62 1007.87 1008.51 1008.87 1009.24 1008.08 1007.95 1005.71 1005.88 1002.77 1004.29 999.06 998.94 1001.74 1001.16 1002.14 1002.40 1003.21 1004.49 1005.68 1006.56 1007.59 1008.46 1009.92 1011.51 1012.99 1014.64 1015.78 1016.56 1017.22 1017.93 1018.32 1018.50 1018.69 1018.91 1018.69 1018.58 1018.46 1018.21 1017.82 1017.46
1009.93 1009.11 1009.30 1008.37 1008.02 1008.45 1008.66 1007.62 1005.27 1005.46 1002.87 1004.97 1004.52 1002.32 996.46 999.89 1000.52 1000.17 1000.24 1000.99 1001.83 1002.67 1003.85 1005.16 1006.49 1007.87 1009.12 1010.27 1012.13 1013.78 1015.13 1016.32 1016.74 1017.43 1017.68 1018.14 1018.54 1018.54 1018.62 1018.58 1018.47 1018.06 1017.66 1017.20
1009.86 1009.64 1009.13 1007.45 1007.91 1008.81 1008.22 1003.17 1004.54 1002.56 1001.62 1002.92 1001.99 998.08 999.17 999.74 999.99 998.90 999.40 1000.07 1000.14 1000.92 1002.27 1003.89 1005.05 1006.07 1007.75 1009.24 1011.06 1013.09 1014.64 1015.75 1016.63 1017.03 1017.77 1018.32 1018.64 1018.55 1018.50 1018.52 1018.22 1017.72 1017.41 1017.07
1007.64 1008.17 1008.26 1006.71 1007.76 1006.03 1002.57 1003.32 1003.12 1001.10 1001.03 1001.02 999.10 997.79 997.92 997.74 997.58 997.38 998.81 998.88 999.23 999.93 1001.16 1002.62 1003.90 1005.57 1007.38 1008.98 1011.00 1012.68 1014.14 1015.06 1015.95 1016.87 1017.57 1017.83 1018.41 1018.62 1018.48 1018.44 1018.31 1017.95 1017.38 1016.72
1004.81 1005.94 1006.41 1006.19 1004.82 1003.28 1003.02 1000.95 1000.86 999.75 999.97 997.65 998.68 997.16 995.80 996.34 997.48 995.50 997.73 997.67 998.28 998.85 1000.05 1001.38 1002.72 1004.57 1006.83 1008.46 1010.67 1012.60 1014.15 1015.05 1015.71 1016.62 1017.11 1017.61 1018.09 1018.40 1018.58 1018.41 1017.94 1017.39 1016.91 1016.41
1004.12 1003.17 1003.35 1003.83 1002.81 1001.28 999.83 998.29 999.46 999.66 999.20 994.51 996.39 995.22 995.26 996.51 997.77 994.83 996.05 996.79 997.58 998.67 999.82 1001.31 1003.11 1004.96 1006.80 1008.73 1010.43 1012.06 1013.72 1014.94 1015.60 1015.98 1016.67 1017.19 1017.59 1017.96 1018.30 1018.34 1018.19 1017.27 1016.54 1015.90
1002.05 1002.13 1001.29 1000.38 998.93 997.57 997.85 997.97 998.96 998.72 992.74 991.12 992.73 993.31 993.94 995.57 994.95 994.25 995.83 997.00 997.83 999.14 1000.29 1001.73 1003.64 1004.95 1006.75 1008.50 1010.17 1011.88 1013.36 1014.52 1015.34 1015.97 1016.53 1016.96 1017.52 1017.98 1018.15 1018.16 1017.83 1017.15 1016.47 1015.28
998.01 998.62 998.20 998.43 997.51 995.95 995.17 996.65 996.17 990.40 989.19 989.75 990.33 991.48 992.53 993.22 993.88 995.30 996.55 997.70 998.76 999.42 1000.67 1002.17 1003.86 1005.36 1007.10 1008.17 1008.89 1011.19 1012.95 1014.41 1015.42 1016.02 1016.42 1017.03 1017.54 1017.57 1017.46 1017.83 1017.30 1016.69 1015.92 1014.80
994.87 993.44 992.61 993.26 992.03 991.69 991.09 990.48 990.20 989.64 990.01 989.02 989.33 990.08 991.21 992.37 993.58 994.62 996.35 998.28 999.46 1000.32 1001.09 1002.50 1004.34 1006.03 1007.52 1008.28 1008.14 1009.63 1011.48 1012.85 1014.03 1015.32 1016.19 1016.67 1017.03 1016.88 1016.88 1016.52 1016.11 1015.93 1015.26 1014.05
991.37 991.39 991.10 991.29 990.46 990.01 989.80 989.01 988.53 988.41 988.65 988.10 988.72 989.66 990.47 991.29 992.51 994.30 995.97 997.64 999.06 1000.11 1001.94 1003.21 1004.49 1006.16 1007.53 1008.52 1009.08 1009.83 1011.60 1012.70 1013.46 1014.47 1015.28 1016.01 1016.10 1016.48 1016.53 1016.06 1015.99 1015.69 1014.65 1013.27
991.74 991.14 990.70 990.22 990.24 989.78 988.64 987.86 987.71 987.96 988.40 988.43 988.19 989.21 989.62 990.64 991.67 992.65 995.04 996.60 997.72 998.94 1001.71 1003.01 1004.06 1006.36 1007.68 1008.25 1010.12 1010.98 1012.06 1013.11 1014.27 1014.56 1014.80 1015.78 1016.07 1016.32 1016.39 1015.92 1015.87 1015.22 1014.19 1012.97
991.92 990.20 989.70 987.73 987.92 987.79 986.20 986.57 987.03 987.33 987.38 987.36 987.85 988.43 988.37 989.46 990.24 991.89 993.84 995.71 997.07 998.20 999.91 1002.48 1003.53 1005.87 1007.75 1008.86 1009.59 1012.08 1012.93 1013.81 1014.30 1014.61 1015.01 1015.36 1015.69 1016.15 1016.33 1016.29 1015.38 1014.91 1013.80 1013.05
Wind_Speed
2 3 10 13 9 3 4 5 7 5 5 4 11 16 20 20 10 15 14 12 16 21 12 11 12 12 10 9 9 8 8 5 3 2 1 2 2 3 3 3 5 7 7 7
4 12 9 6 5 5 4 4 8 7 2 6 9 18 18 20 20 19 16 12 16 13 12 14 14 11 12 12 11 9 8 7 5 3 2 2 2 3 4 4 4 6 8 9
9 4 6 7 4 6 5 7 5 9 6 4 8 11 8 6 7 9 9 12 13 18 18 17 19 18 14 13 13 11 10 8 6 6 2 1 2 3 3 3 6 6 9 10
8 3 7 4 6 8 4 7 2 3 3 5 4 17 3 7 12 8 9 10 14 15 15 17 20 18 17 14 11 10 9 8 7 8 5 4 3 3 2 4 7 9 9 10
10 8 5 5 9 9 7 4 4 1 3 3 4 6 4 3 8 17 9 10 11 13 16 19 21 22 17 14 12 10 8 6 5 6 5 3 4 4 6 6 10 10 10 9
6 1 7 7 3 2 6 5 4 4 2 2 9 11 6 7 11 9 6 6 7 8 13 14 16 16 16 12 12 11 10 7 6 5 5 4 6 6 6 6 7 7 7 7
0 5 3 4 5 3 3 6 6 6 3 11 5 3 15 7 12 13 11 7 6 7 10 13 17 17 17 17 14 11 11 8 8 6 4 5 6 6 7 8 7 10 8 7
6 12 10 6 9 9 7 10 9 10 5 16 2 11 11 17 13 6 7 7 6 7 9 15 18 18 18 17 15 13 11 7 7 5 5 4 4 4 5 7 7 7 8 9
8 10 2 3 3 4 6 7 3 5 2 3 7 14 7 8 10 6 10 7 11 9 11 13 14 18 18 18 17 14 11 8 8 6 3 3 4 5 6 8 8 7 9 10
6 6 3 3 3 1 5 6 4 2 3 7 13 25 19 11 15 12 12 14 12 7 9 11 14 16 16 16 14 13 10 9 8 6 4 2 4 5 6 7 8 9 11 12
6 6 3 4 12 14 5 4 3 2 5 7 7 22 5 8 11 12 14 10 10 9 10 13 13 14 15 13 14 12 10 10 8 6 4 3 4 4 5 7 8 9 11 13
8 5 9 15 1 0 3 12 13 8 9 6 2 32 1 2 9 9 8 9 7 7 10 11 12 14 16 17 15 13 10 9 8 6 4 4 3 4 5 7 9 10 11 13
10 5 2 8 2 4 7 8 9 2 1 23 8 29 5 10 9 9 8 8 10 10 9 9 11 16 18 16 14 13 11 10 8 6 4 3 3 4 7 8 9 10 12 13
13 7 12 22 17 7 6 9 18 22 19 14 30 33 38 33 20 12 8 10 13 12 12 12 12 15 15 14 15 12 10 9 8 6 4 3 3 6 6 8 9 10 11 13
8 13 16 24 26 6 5 7 22 24 30 21 29 21 41 33 20 24 19 21 11 11 12 15 15 15 13 14 13 11 9 9 8 6 4 4 4 5 6 8 9 10 11 11
1 13 10 27 26 9 11 20 28 25 34 15 20 34 45 28 20 22 27 23 23 17 15 15 14 15 17 19 15 14 11 9 8 6 5 3 3 4 6 7 9 10 11 12
8 7 9 24 22 3 2 37 30 34 33 20 28 40 30 28 26 28 27 25 24 20 12 14 18 19 18 18 17 14 12 10 8 6 3 0 3 4 6 7 9 10 11 12
20 17 13 19 8 21 22 18 25 33 26 18 29 32 30 29 27 25 10 21 18 12 11 13 14 15 16 14 13 13 11 10 8 6 3 1 3 4 6 7 9 10 11 12
27 21 11 11 16 19 13 15 14 17 24 35 22 28 31 23 8 26 14 16 22 17 11 11 15 17 14 17 15 13 11 9 8 6 4 2 2 4 6 7 9 9 10 13
28 25 20 14 11 16 23 36 11 6 19 40 25 33 30 6 9 23 9 8 9 8 11 15 17 17 18 15 15 14 11 9 7 6 4 2 1 2 4 6 9 10 9 12
7 14 26 25 21 14 14 8 7 8 29 34 16 26 24 16 19 16 8 5 7 9 14 16 16 17 16 15 14 12 11 9 8 6 4 3 1 3 4 6 8 9 11 12
20 12 10 14 17 22 20 10 23 34 32 27 22 14 10 16 18 9 6 7 10 15 17 16 17 16 15 15 15 13 11 10 8 6 4 2 1 2 2 5 6 7 9 11
20 22 23 19 12 7 14 26 31 31 29 26 21 9 18 17 16 11 10 10 11 14 14 15 16 16 12 12 13 16 14 13 10 7 4 3 1 0 3 3 5 7 8 9
17 22 20 25 23 12 13 18 23 27 29 32 19 10 10 19 11 12 11 13 14 15 14 12 18 17 15 11 10 12 13 11 10 9 7 4 2 4 2 4 4 5 7 9
5 2 16 22 24 29 26 24 24 21 14 9 13 11 17 16 12 16 14 16 16 19 16 16 16 14 14 13 11 10 11 11 9 8 7 5 3 4 5 4 4 7 8 10
16 20 20 24 23 20 26 19 21 25 24 24 23 20 16 18 20 16 14 15 18 20 19 16 16 15 14 12 14 10 8 8 8 9 6 5 4 3 5 6 7 10 12 17
Wind_Direction
9 110 213 210 201 174 168 198 234 250 239 226 247 254 262 275 244 257 240 208 211 219 208 178 180 177 169 171 163 167 163 173 156 178 250 258 247 263 258 276 274 293 295 295
56 229 202 133 150 153 166 206 258 283 237 193 272 263 265 259 261 259 249 223 222 213 187 186 181 180 183 177 178 169 174 173 188 180 201 239 277 277 263 258 259 294 288 304
169 232 108 132 146 163 203 191 228 236 335 253 302 265 237 285 255 266 223 224 213 209 200 190 187 188 183 184 181 179 175 180 189 185 178 275 293 277 301 310 305 291 290 300
227 223 151 161 209 150 225 208 206 287 17 257 22 292 238 244 281 257 233 207 223 207 204 195 190 190 190 188 184 176 171 176 184 173 179 201 232 269 246 281 279 287 283 290
239 163 164 185 215 162 222 125 142 134 215 7 239 269 215 8 274 267 258 218 220 207 199 196 195 194 185 182 179 177 169 174 169 173 182 207 248 263 272 278 284 282 280 276
255 352 169 198 80 145 135 95 68 63 101 264 223 200 167 184 211 258 258 228 222 202 200 200 196 189 185 177 175 170 167 170 168 176 189 207 242 258 274 280 281 281 285 283
247 212 175 163 100 27 101 69 327 318 346 245 136 233 257 234 229 219 226 219 217 220 192 189 187 188 186 183 177 171 168 171 170 170 188 216 240 256 274 286 288 297 305 304
181 267 178 186 195 177 174 167 169 238 233 287 69 245 269 219 238 215 255 258 246 222 199 199 194 191 192 183 176 172 166 163 167 172 200 222 251 250 270 278 282 290 296 300
178 267 117 204 149 144 182 193 174 96 138 317 239 262 283 227 251 237 238 234 250 222 202 205 197 196 189 183 181 170 167 162 169 179 197 234 259 285 289 295 297 303 307 299
221 276 187 137 128 62 172 162 88 359 243 251 268 273 270 218 233 227 240 222 241 234 200 202 200 197 194 184 167 166 165 166 158 164 183 223 293 283 291 302 308 309 295 293
156 176 214 128 205 172 144 200 198 166 162 193 269 268 207 207 199 206 231 211 212 218 208 204 200 193 189 177 162 164 153 151 165 163 168 234 260 290 311 301 298 293 295 296
210 169 223 220 317 109 198 196 177 195 226 244 192 270 54 321 189 203 221 211 215 219 213 202 193 186 183 180 166 157 153 157 162 166 178 222 262 302 300 286 292 293 299 298
175 223 270 263 348 356 215 195 214 249 213 229 186 258 160 234 225 204 222 231 235 228 217 191 184 192 191 176 162 155 159 160 161 162 173 217 273 274 278 289 301 306 302 300
167 168 206 236 247 132 193 200 214 214 234 229 231 257 275 258 267 255 247 230 229 220 214 196 198 198 188 173 159 157 157 155 151 161 170 211 249 267 289 306 308 311 308 304
164 241 239 252 260 219 203 229 225 222 228 221 253 245 257 270 267 269 268 268 257 219 204 204 199 194 172 163 154 154 148 152 154 158 168 217 260 296 311 313 318 309 305 307
192 249 267 253 258 248 243 253 255 253 252 237 257 262 256 281 287 286 275 275 275 254 219 203 196 177 175 170 162 161 157 159 154 161 179 212 285 321 331 320 311 312 311 311
196 230 241 253 259 216 253 243 260 264 268 262 254 252 273 264 265 259 266 269 268 264 205 192 189 184 178 170 159 156 156 147 161 165 157 164 339 333 317 312 311 312 313 313
231 230 238 252 230 236 244 261 256 256 264 251 253 261 262 260 260 261 230 251 259 240 195 189 178 169 165 151 141 136 146 155 152 146 140 88 331 307 315 317 323 318 317 312
218 225 239 238 229 254 309 251 208 235 259 257 256 260 258 263 292 272 219 229 242 242 205 184 166 157 147 144 139 136 143 147 140 139 126 137 282 312 329 327 317 316 313 312
235 223 212 209 229 230 232 248 212 90 272 261 229 254 262 239 259 272 273 207 218 176 159 151 147 143 142 142 142 139 146 144 140 143 155 157 33 319 316 314 311 311 306 301
176 211 224 230 235 232 226 215 114 180 247 259 232 231 244 224 225 244 151 153 147 148 145 137 145 149 143 140 140 135 139 144 144 140 128 110 39 307 289 306 307 307 307 302
222 195 208 228 240 249 218 162 207 229 246 254 257 228 203 218 236 213 179 159 154 146 145 147 146 144 143 147 140 138 141 141 135 123 107 92 289 290 322 280 299 311 302 300
229 213 220 201 213 212 196 214 220 236 243 259 253 218 213 218 226 188 186 169 165 156 146 149 146 137 144 151 148 142 147 149 135 124 130 166 234 298 285 268 318 314 306 305
219 238 242 254 253 237 223 226 232 228 232 245 257 247 197 221 205 189 173 168 166 155 159 152 145 149 150 152 141 126 141 134 131 140 145 149 73 6 350 346 333 310 307 316
247 336 254 260 262 261 255 238 235 245 244 273 260 240 216 214 209 185 182 177 170 159 157 164 156 155 149 138 128 129 135 135 137 141 131 116 81 22 359 0 313 313 306 318
253 252 248 251 254 249 260 260 252 250 252 248 251 247 229 217 221 183 183 177 169 163 152 164 153 149 145 137 129 130 129 151 150 135 127 114 101 57 21 344 332 332 339 340